Wind_Speed
38 33 33 31 33 38 34 29 28 29 26 23 20 21 24 32 31 24 28 27 27 26 25 26 26 25 24 21 17 20 17 14 12 11 11 11 10 10 10 9 6 6 6 7 9 11 13
33 31 27 28 30 33 33 33 28 25 24 31 29 29 31 35 35 35 30 27 27 25 24 25 24 24 22 12 16 16 14 13 10 9 9 9 9 8 7 5 5 4 5 8 10 14 16
32 34 27 29 28 30 27 29 32 24 35 35 37 35 41 38 34 31 31 28 27 25 23 22 21 20 17 16 14 13 12 10 8 8 8 7 6 6 4 3 4 6 8 10 14 16 19
34 36 30 30 31 32 32 30 36 35 36 37 39 43 38 36 34 31 30 27 25 22 20 18 16 16 13 10 10 11 9 8 8 8 7 6 5 4 3 4 6 8 11 13 14 17 20
36 35 40 38 36 32 33 33 36 39 38 39 35 35 36 34 29 27 26 24 22 19 16 15 12 11 10 9 8 9 8 8 7 7 7 5 4 3 4 6 8 9 11 15 17 17 20
36 35 40 37 41 38 38 39 38 39 38 34 31 32 31 26 27 24 21 21 19 16 13 12 10 8 9 9 9 9 9 8 8 6 5 5 4 5 7 7 7 9 13 15 16 17 21
38 34 33 37 41 35 35 36 33 34 33 29 26 25 22 21 16 16 18 16 17 16 14 9 11 6 12 10 10 9 9 8 8 7 7 6 5 6 8 8 8 10 12 15 16 20 21
33 33 33 31 30 28 27 28 32 29 27 25 24 23 21 19 16 19 20 17 15 17 16 15 14 14 13 11 11 10 9 8 7 6 6 5 6 6 5 5 7 9 13 15 15 17 22
26 28 28 28 29 29 24 26 25 26 25 24 21 18 17 15 18 16 16 16 17 16 19 16 13 11 10 10 8 8 7 7 7 7 6 4 3 3 4 5 7 10 11 12 18 21 22
24 24 23 23 23 22 21 19 21 20 20 18 18 20 24 24 22 21 19 19 20 14 10 10 9 9 9 10 8 8 7 5 4 4 3 1 3 3 4 5 8 11 9 16 19 21 8
20 20 19 19 18 19 17 13 14 15 17 18 19 20 19 17 16 16 14 13 9 6 4 5 5 7 7 3 8 5 4 4 3 3 3 3 4 3 5 6 9 9 14 18 21 14 12
18 17 17 16 15 14 13 12 10 9 9 11 14 13 12 10 8 5 3 4 4 3 3 5 6 6 6 6 4 5 3 3 2 3 3 4 5 6 6 9 10 13 14 20 10 7 2
17 16 15 14 13 13 12 10 8 8 7 6 6 5 7 8 5 3 2 4 3 3 9 8 7 6 6 5 4 3 2 0 1 2 6 6 9 9 8 8 9 7 12 5 4 2 3
19 18 17 14 13 13 13 13 12 10 9 8 8 9 9 8 8 6 6 5 3 8 5 9 8 7 5 5 3 2 1 1 2 2 4 3 3 5 5 6 6 8 6 2 4 2 6
21 19 18 18 17 15 13 12 11 11 11 10 10 10 11 11 11 11 9 6 6 10 12 10 8 6 4 3 2 2 3 2 1 2 3 2 3 5 7 7 6 5 3 5 4 4 4
20 21 22 19 18 17 16 15 13 12 11 10 9 8 9 10 11 11 8 10 9 12 11 8 4 4 4 3 1 2 2 2 2 2 5 3 4 5 6 7 8 7 5 3 2 1 4
17 19 20 21 21 19 16 15 14 12 11 9 8 6 5 6 6 6 8 11 11 9 7 5 5 4 3 2 2 2 2 3 3 4 8 8 4 4 7 5 5 6 6 3 3 3 2
12 14 16 18 20 21 20 16 15 14 12 9 7 5 3 1 2 2 5 6 7 6 4 3 3 2 2 2 2 2 3 3 4 7 8 4 6 6 6 9 10 9 10 7 4 3 6
11 11 13 15 17 19 21 21 19 14 12 11 8 6 4 3 0 1 2 3 3 4 3 2 2 2 3 3 3 2 4 4 6 7 3 8 4 7 4 3 5 9 9 11 14 15 15
9 10 10 11 14 16 18 21 21 19 14 12 10 5 5 5 3 2 1 2 2 2 3 4 4 5 6 6 6 6 6 7 8 10 11 14 12 11 11 13 19 25 26 23 19 16 18
10 9 12 10 10 12 14 18 21 19 18 13 12 6 6 6 6 6 5 4 5 6 6 6 6 6 8 7 9 11 11 10 10 13 16 14 20 20 23 22 25 34 35 33 37 37 28
17 16 14 13 13 13 13 15 18 19 16 16 12 10 8 6 7 6 5 5 6 7 7 7 8 10 10 9 10 15 16 16 15 16 15 18 17 21 34 25 17 27 29 34 35 35 40
19 20 20 18 19 19 20 20 19 19 17 14 13 11 9 7 7 7 7 5 6 7 7 6 7 10 12 12 13 14 17 18 21 23 23 24 20 17 15 19 29 26 4 7 6 23 22
23 22 21 23 25 26 25 24 22 21 17 14 12 9 10 9 8 8 9 10 11 11 10 11 12 13 14 16 18 17 17 19 22 25 27 29 26 17 18 21 3 4 14 22 27 15 11
26 26 26 26 27 30 30 25 21 21 18 14 12 12 12 12 11 9 8 9 11 11 14 15 14 16 17 16 16 13 15 13 12 15 21 25 25 13 7 8 26 15 6 8 17 25 13
30 30 29 30 30 30 30 26 19 19 19 16 16 15 14 14 12 11 10 11 13 15 16 14 16 15 19 17 13 7 5 13 7 7 9 12 17 22 10 4 5 7 15 20 15 3 3
32 33 33 34 32 30 26 26 23 19 21 18 18 20 19 18 13 18 19 15 14 17 20 21 23 22 19 18 18 14 11 13 7 6 6 8 14 28 25 12 16 17 19 16 6 5 19
35 35 37 37 33 32 27 26 21 22 22 23 23 24 24 26 25 22 16 22 25 26 27 26 26 24 19 17 12 10 12 10 10 13 12 7 6 10 15 10 13 4 10 10 16 38 49
41 40 40 33 34 30 27 31 25 26 28 27 28 28 31 31 30 30 31 31 33 34 34 33 31 28 14 15 12 10 13 17 21 19 21 17 19 19 18 19 20 29 41 40 41 44 49
Wind_Direction
41 39 47 56 59 60 55 70 75 72 76 88 102 125 148 156 164 141 141 143 143 144 147 147 146 146 149 152 151 154 154 157 166 181 190 198 202 207 204 212 216 232 253 274 286 291 295
45 44 54 57 62 58 61 68 61 71 88 97 131 133 132 157 163 135 135 135 135 138 141 141 140 142 149 149 149 152 158 166 178 194 204 200 203 200 208 215 231 260 282 291 295 297 296
48 51 63 59 59 53 69 75 75 69 89 88 98 105 120 121 117 119 124 127 129 131 135 134 139 142 149 141 147 159 165 172 178 190 198 195 196 202 207 232 259 281 289 294 294 293 290
50 55 63 66 58 67 89 91 76 87 89 103 105 110 108 114 116 117 117 121 120 125 129 130 135 139 141 140 136 160 166 167 173 179 183 185 189 204 231 258 278 288 293 288 290 289 290
59 54 57 63 64 87 84 89 83 82 96 108 105 109 115 116 120 117 120 122 122 126 127 125 128 128 137 139 147 151 157 161 165 169 172 178 194 224 257 271 279 278 277 285 290 291 293
57 64 74 70 66 79 78 85 87 90 89 90 107 115 129 127 120 131 128 121 126 126 125 121 123 129 139 144 144 148 152 154 157 160 167 186 210 240 256 268 267 277 287 288 294 295 294
52 63 72 70 79 76 76 87 89 89 97 98 89 96 105 110 129 139 140 137 130 125 127 121 128 126 131 133 140 145 149 153 161 172 188 206 231 251 264 267 273 285 294 297 302 304 304
61 56 63 72 78 81 87 86 90 93 90 90 93 97 98 103 109 122 131 130 126 127 123 120 124 132 134 137 144 151 158 166 179 192 204 215 228 242 261 287 298 305 306 304 310 312 311
61 68 65 63 61 75 90 89 93 94 94 89 84 84 86 100 108 110 125 136 132 133 117 116 124 131 136 139 146 156 165 177 186 198 201 205 227 252 282 300 309 316 310 313 314 314 313
59 61 67 67 68 71 80 94 96 97 94 91 88 93 94 95 100 107 115 123 126 121 105 115 121 124 139 143 138 151 153 160 153 163 165 206 239 265 280 298 313 322 312 317 313 317 304
46 53 55 64 70 71 74 81 92 92 82 79 85 100 88 90 102 111 111 124 123 109 67 131 121 134 136 150 146 143 156 165 176 187 217 252 254 249 283 298 315 308 310 311 308 303 301
43 43 47 48 46 54 67 77 83 82 83 89 96 94 79 70 92 118 136 143 140 125 83 136 138 135 139 137 147 144 146 152 180 229 243 242 245 263 272 285 299 306 314 309 300 297 277
43 41 39 39 44 49 49 48 52 67 73 74 73 47 22 9 17 80 119 141 116 74 139 138 134 131 126 126 115 121 132 167 286 267 239 263 261 257 265 280 294 311 329 318 342 342 234
37 34 34 32 35 31 33 38 39 37 38 26 7 359 20 38 60 83 112 123 89 127 137 142 140 135 132 137 145 171 220 283 323 339 302 269 260 242 248 283 297 325 1 46 241 312 292
40 40 30 24 24 23 23 22 22 27 27 29 22 25 46 52 51 68 87 92 107 124 137 137 134 142 153 186 191 235 255 231 283 11 13 295 258 260 271 293 309 315 330 323 272 285 302
35 32 31 31 22 16 16 13 7 4 9 21 26 41 55 62 59 66 84 101 116 129 137 142 143 164 180 187 215 276 242 217 262 299 344 310 298 262 255 270 271 263 282 294 285 1 298
20 22 23 21 25 24 16 10 10 6 354 357 16 24 49 64 72 76 96 106 120 132 142 153 163 164 176 203 263 273 222 260 268 298 320 317 273 271 280 256 268 269 265 250 275 246 204
16 14 13 15 16 16 18 13 4 5 4 347 341 350 349 29 39 83 102 113 125 135 146 146 170 182 200 278 295 276 228 247 275 302 312 312 294 287 272 275 270 265 259 250 240 237 232
351 0 7 8 8 9 6 6 8 1 358 353 346 322 296 299 319 76 99 125 145 166 172 205 230 239 266 291 303 276 269 279 291 304 294 321 299 313 280 279 277 266 279 269 261 261 240
333 338 355 1 4 359 357 355 358 1 359 359 350 353 328 309 293 300 281 262 238 229 270 269 267 287 290 294 287 278 288 294 292 293 291 300 276 256 255 281 289 284 281 274 260 252 255
313 316 329 339 349 353 353 350 345 346 352 357 356 352 346 328 309 304 298 280 265 271 270 271 277 274 283 289 293 282 281 281 280 284 285 282 279 283 283 285 285 283 278 272 261 258 253
297 303 310 315 328 333 335 337 333 329 334 344 356 342 331 330 330 322 314 293 284 281 283 284 283 285 284 287 279 285 287 286 284 282 279 277 280 293 296 303 283 284 285 275 269 265 264
290 296 301 306 315 318 321 321 316 317 319 324 337 341 334 316 317 310 303 288 286 286 286 279 283 286 291 290 288 287 288 287 281 280 278 277 279 293 295 303 307 299 349 286 265 304 294
290 291 290 297 307 313 314 314 313 309 312 314 321 333 341 333 317 301 292 287 292 292 280 294 291 295 297 294 294 292 292 286 276 271 266 265 272 284 286 309 282 320 291 296 295 318 313
284 287 288 293 300 306 308 310 310 309 308 308 304 312 327 331 325 311 306 294 290 282 290 292 284 289 295 296 296 305 302 288 277 271 261 255 253 253 268 288 291 302 323 341 332 329 317
277 280 283 287 293 296 297 296 293 298 303 306 302 298 308 321 319 316 330 314 302 295 291 283 281 280 291 286 289 284 289 295 279 276 263 251 237 232 234 244 259 296 307 308 317 13 16
275 277 281 285 289 290 291 292 293 287 292 298 303 302 299 304 306 305 311 308 312 308 300 296 295 290 288 278 285 286 272 257 261 266 277 239 229 227 232 246 269 285 293 296 295 299 310
272 276 279 281 283 286 287 289 292 293 290 286 297 294 298 293 295 293 285 301 297 293 293 291 292 286 277 270 268 272 263 260 256 262 276 268 257 238 222 231 269 305 335 323 286 294 299
272 273 276 280 274 279 283 280 278 282 282 287 280 293 293 293 290 291 282 284 286 284 282 282 276 272 257 261 258 259 259 272 277 276 271 263 268 271 259 266 276 287 300 301 294 295 298
Height
3062 3056 3051 3048 3043 3038 3033 3029 3024 3025 3025 3028 3031 3037 3043 3050 3056 3057 3068 3075 3080 3087 3093 3098 3102 3107 3112 3117 3121 3125 3129 3132 3136 3140 3142 3144 3146 3147 3149 3151 3153 3154 3155 3156 3156 3156 3156
3068 3063 3058 3054 3051 3046 3042 3039 3030 3034 3035 3036 3039 3045 3050 3057 3063 3068 3075 3082 3087 3093 3098 3102 3106 3110 3116 3121 3123 3127 3130 3133 3137 3140 3142 3144 3145 3148 3149 3151 3153 3153 3154 3154 3155 3154 3153
3073 3070 3065 3061 3058 3054 3051 3048 3046 3044 3045 3046 3048 3050 3058 3063 3072 3078 3082 3088 3093 3098 3104 3107 3110 3113 3117 3123 3125 3128 3131 3134 3137 3140 3142 3144 3146 3149 3149 3151 3152 3152 3153 3152 3151 3150 3149
3081 3075 3071 3068 3064 3061 3058 3057 3055 3055 3056 3058 3061 3065 3070 3075 3080 3085 3090 3095 3099 3104 3108 3111 3114 3117 3120 3125 3126 3130 3132 3135 3137 3139 3142 3143 3146 3148 3149 3150 3150 3150 3150 3149 3148 3147 3145
3090 3086 3081 3078 3073 3068 3067 3067 3067 3067 3067 3071 3073 3076 3080 3083 3088 3092 3096 3100 3104 3108 3112 3115 3118 3120 3124 3126 3128 3130 3133 3135 3138 3140 3141 3144 3146 3147 3148 3148 3149 3147 3146 3145 3145 3143 3141
3098 3096 3091 3087 3085 3082 3080 3080 3081 3080 3081 3082 3084 3086 3089 3093 3095 3098 3102 3105 3108 3112 3115 3118 3121 3125 3126 3127 3129 3131 3134 3136 3138 3140 3142 3144 3145 3145 3146 3146 3146 3145 3144 3143 3142 3140 3137
3108 3105 3102 3099 3096 3095 3094 3091 3090 3091 3091 3092 3093 3095 3097 3100 3102 3104 3107 3109 3115 3118 3118 3120 3123 3124 3127 3129 3131 3133 3135 3137 3138 3140 3141 3142 3144 3144 3144 3144 3144 3143 3142 3140 3139 3136 3133
3117 3114 3112 3109 3106 3105 3103 3102 3100 3100 3101 3101 3101 3102 3103 3104 3106 3107 3111 3114 3117 3120 3120 3123 3125 3127 3128 3130 3132 3134 3136 3138 3138 3139 3140 3142 3141 3143 3143 3143 3143 3141 3140 3138 3136 3134 3130
3123 3121 3120 3118 3117 3114 3112 3110 3110 3109 3109 3108 3109 3108 3108 3108 3110 3112 3113 3116 3118 3120 3121 3126 3128 3129 3131 3133 3133 3134 3136 3137 3137 3139 3139 3140 3142 3142 3142 3142 3141 3139 3138 3136 3134 3130 3127
3131 3128 3125 3123 3122 3121 3120 3118 3117 3116 3116 3115 3114 3114 3114 3114 3116 3115 3118 3119 3121 3123 3126 3131 3131 3132 3132 3132 3134 3135 3136 3138 3138 3139 3139 3140 3141 3141 3142 3141 3140 3138 3136 3134 3131 3129 3127
3134 3133 3132 3130 3128 3127 3126 3124 3123 3122 3122 3121 3121 3120 3120 3121 3121 3122 3124 3123 3124 3125 3128 3134 3132 3132 3132 3135 3136 3136 3136 3137 3138 3138 3141 3141 3140 3141 3140 3140 3138 3137 3134 3132 3129 3126 3125
3139 3137 3135 3133 3132 3131 3130 3129 3128 3127 3126 3126 3125 3125 3124 3125 3125 3125 3124 3124 3125 3128 3129 3132 3132 3133 3134 3134 3135 3136 3137 3138 3138 3138 3138 3139 3140 3140 3139 3138 3137 3136 3133 3129 3126 3125 3124
3142 3141 3139 3136 3135 3133 3133 3132 3131 3130 3129 3128 3127 3126 3126 3125 3125 3124 3124 3125 3127 3126 3133 3134 3133 3134 3135 3136 3136 3136 3137 3138 3139 3139 3138 3138 3138 3137 3137 3137 3136 3135 3132 3128 3129 3126 3123
3147 3144 3142 3140 3138 3136 3134 3132 3132 3132 3130 3129 3128 3127 3125 3124 3123 3123 3124 3126 3125 3129 3130 3132 3133 3134 3135 3136 3137 3137 3138 3138 3139 3138 3137 3137 3137 3136 3136 3136 3135 3133 3133 3132 3137 3132 3123
3150 3148 3145 3142 3140 3138 3136 3135 3133 3132 3131 3130 3129 3127 3126 3125 3125 3124 3125 3124 3126 3128 3131 3132 3134 3135 3136 3137 3138 3137 3137 3137 3137 3137 3137 3136 3134 3134 3133 3133 3135 3132 3133 3133 3131 3130 3128
3153 3151 3148 3146 3143 3140 3138 3136 3134 3133 3132 3131 3130 3129 3128 3127 3127 3127 3127 3126 3127 3129 3131 3133 3134 3135 3135 3136 3137 3136 3135 3136 3136 3136 3135 3135 3133 3131 3131 3132 3132 3131 3133 3131 3130 3131 3127
3155 3153 3151 3148 3145 3143 3140 3138 3136 3134 3133 3131 3131 3131 3130 3130 3130 3130 3130 3129 3129 3131 3132 3133 3133 3134 3135 3135 3135 3135 3135 3136 3135 3135 3134 3133 3133 3133 3131 3129 3129 3130 3129 3130 3130 3129 3128
3157 3154 3152 3149 3147 3144 3142 3140 3137 3136 3134 3133 3132 3132 3131 3131 3132 3130 3130 3131 3131 3132 3132 3133 3133 3134 3134 3134 3134 3133 3134 3134 3133 3133 3132 3132 3130 3128 3128 3127 3127 3126 3127 3128 3128 3128 3126
3158 3155 3153 3150 3148 3146 3144 3141 3139 3136 3135 3134 3132 3131 3131 3131 3131 3131 3130 3131 3131 3132 3132 3133 3133 3133 3133 3133 3134 3132 3132 3132 3131 3131 3130 3130 3128 3127 3124 3127 3125 3124 3124 3124 3124 3124 3118
3157 3156 3154 3152 3149 3147 3145 3142 3140 3137 3134 3133 3133 3132 3131 3131 3130 3130 3130 3130 3130 3131 3131 3131 3131 3131 3131 3131 3131 3130 3130 3130 3129 3129 3128 3128 3125 3126 3124 3123 3122 3120 3119 3119 3120 3117 3110
3156 3155 3154 3151 3149 3148 3145 3143 3140 3138 3136 3134 3132 3131 3130 3130 3130 3130 3130 3130 3130 3130 3130 3130 3130 3130 3130 3130 3129 3128 3128 3128 3127 3126 3125 3124 3120 3120 3119 3118 3115 3110 3108 3108 3105 3105 3103
3153 3152 3151 3150 3148 3146 3145 3143 3140 3137 3135 3134 3133 3131 3130 3129 3129 3129 3128 3128 3128 3128 3129 3128 3128 3128 3127 3127 3127 3126 3125 3124 3123 3122 3121 3119 3116 3112 3107 3110 3106 3099 3098 3096 3094 3093 3089
3151 3149 3147 3146 3145 3143 3142 3140 3138 3137 3135 3133 3131 3130 3129 3128 3127 3127 3127 3126 3126 3127 3127 3125 3125 3125 3124 3124 3123 3122 3120 3120 3119 3117 3116 3115 3113 3112 3104 3102 3099 3091 3086 3086 3086 3085 3085
3145 3145 3144 3142 3141 3139 3138 3136 3134 3133 3133 3131 3130 3129 3127 3127 3126 3125 3125 3125 3124 3124 3124 3123 3122 3122 3122 3120 3119 3117 3116 3113 3111 3110 3110 3109 3110 3112 3104 3101 3097 3086 3084 3085 3083 3083 3079
3139 3139 3139 3138 3137 3135 3133 3132 3131 3129 3129 3128 3127 3128 3126 3124 3124 3123 3122 3121 3122 3121 3121 3121 3120 3119 3117 3116 3114 3112 3110 3107 3105 3103 3102 3103 3106 3108 3106 3101 3090 3082 3081 3082 3080 3080 3075
3132 3132 3132 3132 3132 3131 3129 3127 3127 3126 3125 3124 3123 3123 3122 3122 3121 3120 3120 3119 3119 3118 3117 3116 3115 3114 3114 3112 3112 3110 3108 3106 3104 3100 3098 3099 3100 3103 3101 3102 3093 3081 3080 3079 3079 3077 3075
3125 3126 3125 3125 3125 3125 3124 3122 3122 3121 3121 3121 3119 3119 3118 3117 3117 3116 3116 3115 3115 3113 3112 3112 3111 3110 3109 3108 3107 3107 3103 3103 3101 3098 3097 3097 3097 3096 3098 3096 3083 3080 3077 3076 3077 3078 3070
3118 3118 3118 3118 3117 3118 3118 3117 3117 3116 3115 3116 3115 3113 3112 3109 3110 3110 3109 3109 3108 3108 3107 3106 3106 3103 3104 3104 3103 3102 3099 3098 3096 3095 3095 3096 3094 3093 3093 3094 3084 3078 3076 3078 3074 3066 3061
3108 3110 3109 3109 3109 3110 3111 3111 3111 3110 3109 3109 3110 3108 3105 3104 3104 3103 3102 3101 3100 3099 3098 3097 3099 3098 3099 3098 3098 3096 3095 3092 3090 3090 3090 3090 3088 3087 3085 3078 3076 3073 3070 3070 3063 3056 3052